FW0403 Weather Reports


Display with metric or nautical units.
time (UTC)temp
F
wind
direction
speed
MPH
gust
MPH
rain 1hr
in
rain 24hr
in
rain mn
in
humidity
%
barometer
mb
20260504185025 80 2 10.0 13.0 0.00 0.00 0.00 62 1013.9
20260504184526 80 2 9.0 13.0 0.00 0.00 0.00 60 1013.9
20260504184032 81 188 9.0 14.0 0.00 0.00 0.00 60 1013.9
20260504183531 81 227 8.0 14.0 0.00 0.00 0.00 59 1014.1
20260504182404 80 2 9.0 14.0 0.00 0.00 0.00 60 1014.2
20260504181846 80 190 9.0 14.0 0.00 0.00 0.00 60 1014.1
20260504181328 80 2 9.0 14.0 0.00 0.00 0.00 60 1014.1
20260504180808 80 206 9.0 17.0 0.00 0.00 0.00 61 1014.3
20260504180308 80 2 10.0 17.0 0.00 0.00 0.00 60 1014.3
20260504175804 79 200 10.0 17.0 0.00 0.00 0.00 59 1014.2
20260504175301 79 188 10.0 17.0 0.00 0.00 0.00 59 1014.5
20260504173456 79 2 11.0 15.0 0.00 0.00 0.00 60 1014.8
20260504172946 79 2 10.0 14.0 0.00 0.00 0.00 60 1014.8
20260504171803 79 174 11.0 15.0 0.00 0.00 0.00 62 1014.8
20260504171254 79 177 11.0 15.0 0.00 0.00 0.00 61 1014.9
20260504170144 78 2 12.0 15.0 0.00 0.00 0.00 61 1015.2
20260504160413 78 179 11.0 17.0 0.00 0.00 0.00 60 1015.5
20260504140509 76 171 11.0 15.0 0.00 0.00 0.00 63 1015.4
20260504130702 75 192 11.0 14.0 0.00 0.00 0.00 63 1015.4
20260504130147 75 192 10.0 14.0 0.00 0.00 0.00 63 1015.3
20260504110717 73 193 10.0 15.0 0.00 0.00 0.00 59 1014.7
20260504110220 73 194 10.0 15.0 0.00 0.00 0.00 58 1014.9
20260504100134 73 174 8.0 15.0 0.00 0.00 0.00 53 1015.3
20260504081551 73 173 11.0 17.0 0.00 0.00 0.00 53 1015.7
20260504081036 73 202 10.0 17.0 0.00 0.00 0.00 54 1015.8
20260504080534 73 184 11.0 17.0 0.00 0.00 0.00 55 1015.7
20260504060111 73 204 9.0 16.0 0.00 0.00 0.00 54 1017.3
20260504045716 73 186 6.0 12.0 0.00 0.00 0.00 53 1017.8
20260504045223 73 129 6.0 12.0 0.00 0.00 0.00 53 1017.9
20260504044702 73 148 6.0 12.0 0.00 0.00 0.00 54 1017.9
20260504044141 73 163 6.0 11.0 0.00 0.00 0.00 52 1018.0
20260504041053 73 142 5.0 11.0 0.00 0.00 0.00 53 1017.8
20260504040531 73 139 5.0 11.0 0.00 0.00 0.00 52 1017.8
20260504040016 73 169 6.0 11.0 0.00 0.00 0.00 52 1018.0
20260504035521 73 127 5.0 11.0 0.00 0.00 0.00 53 1017.8
20260504034405 73 108 5.0 11.0 0.00 0.00 0.00 54 1017.9
20260504033900 73 178 5.0 11.0 0.00 0.00 0.00 53 1017.9
20260504033341 73 186 5.0 11.0 0.00 0.00 0.00 52 1017.8
20260504032820 73 182 5.0 11.0 0.00 0.00 0.00 52 1017.8
20260504032327 73 133 4.0 9.0 0.00 0.00 0.00 51 1017.9
20260504031812 73 178 4.0 8.0 0.00 0.00 0.00 52 1017.9
20260504031254 73 193 5.0 9.0 0.00 0.00 0.00 53 1017.8
20260504030752 73 181 5.0 9.0 0.00 0.00 0.00 51 1017.8
20260504030239 73 182 5.0 9.0 0.00 0.00 0.00 52 1017.8
20260504025741 73 168 5.0 9.0 0.00 0.00 0.00 51 1017.8
20260504025246 73 130 4.0 8.0 0.00 0.00 0.00 51 1017.8
20260504024050 73 197 5.0 10.0 0.00 0.00 0.00 51 1017.8
20260504023535 73 147 5.0 10.0 0.00 0.00 0.00 50 1017.9
20260504023029 73 161 4.0 10.0 0.00 0.00 0.00 51 1017.8
20260504022519 73 121 5.0 10.0 0.00 0.00 0.00 50 1017.7
20260504022018 73 168 5.0 9.0 0.00 0.00 0.00 51 1017.7
20260504021506 73 140 4.0 8.0 0.00 0.00 0.00 52 1017.8
20260504015703 73 148 3.0 7.0 0.00 0.00 0.00 51 1017.7
20260504015141 73 125 3.0 6.0 0.00 0.00 0.00 50 1017.8
20260504014636 73 138 3.0 6.0 0.00 0.00 0.00 51 1017.9
20260504014119 73 166 3.0 9.0 0.00 0.00 0.00 50 1017.8
20260504013618 73 150 4.0 9.0 0.00 0.00 0.00 50 1017.9
20260504012452 73 179 4.0 9.0 0.00 0.00 0.00 50 1017.9
20260504011955 74 161 4.0 10.0 0.00 0.00 0.00 51 1017.9
20260504011436 74 167 5.0 10.0 0.00 0.00 0.00 50 1017.9
20260504010933 74 163 5.0 10.0 0.00 0.00 0.00 52 1017.9
20260504010424 74 186 5.0 10.0 0.00 0.00 0.00 51 1017.9
20260504005904 74 162 4.0 9.0 0.00 0.00 0.00 50 1018.0
20260504005410 74 169 4.0 6.0 0.00 0.00 0.00 50 1018.0
20260504004229 75 165 3.0 8.0 0.00 0.00 0.00 49 1017.9
20260504003725 75 155 4.0 9.0 0.00 0.00 0.00 50 1017.9
20260504002551 75 171 4.0 9.0 0.00 0.00 0.00 51 1017.7
20260504002058 76 134 4.0 9.0 0.00 0.00 0.00 48 1017.8
20260504001544 77 182 3.0 7.0 0.00 0.00 0.00 50 1017.9
20260504001037 77 178 3.0 6.0 0.00 0.00 0.00 46 1017.9
20260504000525 77 131 3.0 6.0 0.00 0.00 0.00 44 1017.8
20260503235359 78 174 3.0 9.0 0.00 0.00 0.00 44 1018.0
20260503234846 78 174 4.0 9.0 0.00 0.00 0.00 47 1018.2
20260503234335 78 167 3.0 9.0 0.00 0.00 0.00 45 1018.2
20260503233830 78 140 3.0 8.0 0.00 0.00 0.00 46 1018.2
20260503233322 78 187 3.0 8.0 0.00 0.00 0.00 47 1018.1
20260503231534 79 184 3.0 6.0 0.00 0.00 0.00 45 1018.1
20260503231022 78 172 3.0 9.0 0.00 0.00 0.00 44 1018.4
20260503230501 78 193 4.0 9.0 0.00 0.00 0.00 45 1018.4
20260503225946 78 101 5.0 9.0 0.00 0.00 0.00 46 1018.4
20260503225424 78 182 5.0 9.0 0.00 0.00 0.00 46 1018.4
20260503224912 78 173 4.0 8.0 0.00 0.00 0.00 49 1018.4
20260503224416 78 155 5.0 11.0 0.00 0.00 0.00 48 1018.7
20260503223908 78 165 6.0 11.0 0.00 0.00 0.00 47 1018.8
20260503223410 78 183 6.0 11.0 0.00 0.00 0.00 46 1018.8
20260503222853 78 192 5.0 11.0 0.00 0.00 0.00 48 1018.7
20260503222359 78 173 5.0 8.0 0.00 0.00 0.00 48 1018.7
20260503221240 78 174 6.0 12.0 0.00 0.00 0.00 46 1018.6
20260503220735 78 104 5.0 12.0 0.00 0.00 0.00 47 1018.7
20260503220236 78 175 7.0 12.0 0.00 0.00 0.00 48 1018.8
20260503215723 78 180 7.0 12.0 0.00 0.00 0.00 46 1018.8
20260503215229 78 175 7.0 11.0 0.00 0.00 0.00 48 1018.8
20260503214711 79 173 6.0 11.0 0.00 0.00 0.00 47 1018.8
20260503214206 79 188 5.0 9.0 0.00 0.00 0.00 47 1019.0
20260503213712 79 187 4.0 9.0 0.00 0.00 0.00 45 1019.0
20260503212547 79 176 5.0 11.0 0.00 0.00 0.00 45 1019.3
20260503212040 79 190 6.0 11.0 0.00 0.00 0.00 43 1019.4
20260503211529 80 174 5.0 11.0 0.00 0.00 0.00 44 1019.5
20260503210419 80 197 4.0 8.0 0.00 0.00 0.00 41 1019.5
20260503205914 80 174 3.0 10.0 0.00 0.00 0.00 42 1019.6
20260503204130 80 180 4.0 7.0 0.00 0.00 0.00 43 1019.7
20260503203627 81 157 4.0 7.0 0.00 0.00 0.00 43 1019.9
20260503202511 81 131 3.0 8.0 0.00 0.00 0.00 42 1020.1
20260503202002 80 168 4.0 8.0 0.00 0.00 0.00 40 1020.2
20260503201506 81 173 4.0 8.0 0.00 0.00 0.00 40 1020.2
20260503201006 81 135 3.0 7.0 0.00 0.00 0.00 40 1020.3
20260503200455 81 178 2.0 9.0 0.00 0.00 0.00 41 1020.2
20260503195949 81 155 2.0 9.0 0.00 0.00 0.00 40 1020.3
20260503195447 81 187 4.0 9.0 0.00 0.00 0.00 42 1020.4
20260503194934 81 92 4.0 9.0 0.00 0.00 0.00 42 1020.4
20260503193753 81 173 2.0 8.0 0.00 0.00 0.00 40 1020.6
20260503193234 81 140 3.0 9.0 0.00 0.00 0.00 42 1020.9
20260503192739 81 109 4.0 9.0 0.00 0.00 0.00 42 1020.9
20260503192228 81 175 3.0 9.0 0.00 0.00 0.00 40 1020.9
20260503191725 81 121 2.0 8.0 0.00 0.00 0.00 41 1020.9
20260503191207 80 106 2.0 10.0 0.00 0.00 0.00 41 1021.0
20260503190701 80 137 5.0 10.0 0.00 0.00 0.00 42 1021.1
20260503190207 80 113 6.0 10.0 0.00 0.00 0.00 41 1021.1
20260503185704 81 88 3.0 10.0 0.00 0.00 0.00 40 1021.2